EW4330 Caprarola - Centro Storico IT current weather conditions

sailwx.info

Wind from 112 at 0 knots gusting 1

Air temperature 12.8° C
Dewpoint 0.2° C

Last reported at 2019-Dec-05 14:05 UTC.
Time now 2019-Dec-05 14:27 UTC

Location: N 42°19' E 012°14'.
View on Google Maps.

See reports from other nearby stations

  
Tides and Currents Weather Stations Pressure Air Temp Water Temp Dewpoint Dewpoint Depression Visibility Wind Speed Wind Dir Waves Ship Positions
date/time (UTC)wind fromknots sea level pressurealtimeterstation pressurevisibilityair tempwater tempwave heightnotes
2019-Dec-05 14:05 112 0 gusting 1 12.8
2019-Dec-05 14:00 112 0 gusting 0 12.8
2019-Dec-05 13:55 090 12.8
2019-Dec-05 13:50 090 12.8
2019-Dec-05 13:45 090 12.8
2019-Dec-05 13:40 090 12.8
2019-Dec-05 13:35 090 12.8
2019-Dec-05 13:30 090 12.8
2019-Dec-05 13:25 090 12.8
2019-Dec-05 13:20 090 12.8
2019-Dec-05 13:15 090 12.8
2019-Dec-05 13:10 090 12.8
2019-Dec-05 13:05 090 0 gusting 0 12.8
2019-Dec-05 13:00 090 0 gusting 1 12.8
2019-Dec-05 12:55 068 0 gusting 1 12.8
2019-Dec-05 12:50 068 0 gusting 1 12.8
2019-Dec-05 12:45 077 0 gusting 2 12.8
2019-Dec-05 12:40 104 0 gusting 1 12.8
2019-Dec-05 12:35 158 0 gusting 1 12.8
2019-Dec-05 12:30 089 0 gusting 1 12.8
2019-Dec-05 12:25 090 1 gusting 2 12.8
2019-Dec-05 12:20 068 1 gusting 2 12.2
2019-Dec-05 12:15 092 1 gusting 4 12.8
2019-Dec-05 12:10 090 1 gusting 1 12.2
2019-Dec-05 12:05 091 1 gusting 2 12.2
2019-Dec-05 12:00 090 1 gusting 1 12.2
2019-Dec-05 11:55 135 0 gusting 1 12.8
2019-Dec-05 11:50 117 1 gusting 2 12.8
2019-Dec-05 11:45 158 12.8
2019-Dec-05 11:40 158 12.8
2019-Dec-05 11:35 158 12.2
2019-Dec-05 11:30 158 12.2
2019-Dec-05 11:25 158 11.7
2019-Dec-05 11:20 158 11.7
2019-Dec-05 11:15 158 0 gusting 1 11.7
2019-Dec-05 11:10 158 1 gusting 1 11.7
2019-Dec-05 11:05 158 0 gusting 1 11.7
2019-Dec-05 11:00 158 11.7
2019-Dec-05 10:55 158 11.7
2019-Dec-05 10:50 177 0 gusting 1 11.7
2019-Dec-05 10:45 202 11.7
2019-Dec-05 10:40 202 0 gusting 1 11.7
2019-Dec-05 10:35 202 11.7
2019-Dec-05 10:30 202 11.7
2019-Dec-05 10:25 202 11.1
2019-Dec-05 10:20 202 11.1
2019-Dec-05 10:15 202 11.1
2019-Dec-05 10:10 202 11.1
2019-Dec-05 10:05 209 1 gusting 1 11.1
2019-Dec-05 10:00 208 0 gusting 2 10.6
2019-Dec-05 09:55 202 0 gusting 2 10.6
2019-Dec-05 09:50 158 0 gusting 0 10.6
2019-Dec-05 09:45 158 0 gusting 1 10.6
2019-Dec-05 09:40 178 0 gusting 1 10.6
2019-Dec-05 09:35 202 0 gusting 2 10.6
2019-Dec-05 09:30 153 1 gusting 2 10.6
2019-Dec-05 09:25 202 0 gusting 0 10.0
2019-Dec-05 09:20 202 10.0
2019-Dec-05 09:15 202 10.0
2019-Dec-05 09:10 225 10.0
2019-Dec-05 09:05 207 1 gusting 1 10.0
2019-Dec-05 09:00 137 10.6
2019-Dec-05 08:55 068 1 gusting 1 10.6
2019-Dec-05 08:50 068 1 gusting 2 10.6
2019-Dec-05 08:45 202 10.6
2019-Dec-05 08:40 224 10.0
2019-Dec-05 08:35 206 0 gusting 1 9.4
2019-Dec-05 08:30 225 0 gusting 1 9.4
2019-Dec-05 08:25 225 1 gusting 1 8.9
2019-Dec-05 08:20 258 0 gusting 1 8.3
2019-Dec-05 08:15 068 8.3
2019-Dec-05 08:10 068 0 gusting 2 8.9
2019-Dec-05 08:05 109 8.9
2019-Dec-05 08:00 180 8.9
2019-Dec-05 07:55 180 8.9
2019-Dec-05 07:50 180 8.9
2019-Dec-05 07:45 180 0 gusting 0 8.9
2019-Dec-05 07:40 253 0 gusting 1 8.9
2019-Dec-05 07:35 158 0 gusting 0 8.3
2019-Dec-05 07:30 261 0 gusting 1 8.3
2019-Dec-05 07:25 261 0 gusting 1 8.3
2019-Dec-05 07:20 252 1 gusting 2 8.3
2019-Dec-05 07:15 270 0 gusting 1 7.8
2019-Dec-05 07:10 068 7.8
2019-Dec-05 07:05 068 8.3
2019-Dec-05 07:00 068 0 gusting 1 8.3
2019-Dec-05 06:55 215 0 gusting 1 8.3
2019-Dec-05 06:50 292 0 gusting 1 8.3
2019-Dec-05 06:45 299 0 gusting 1 8.3
2019-Dec-05 06:40 288 8.3
2019-Dec-05 06:35 237 0 gusting 1 8.3
2019-Dec-05 06:30 270 8.3
2019-Dec-05 06:25 251 8.3
2019-Dec-05 06:20 246 1 gusting 1 8.3
2019-Dec-05 06:15 250 1 gusting 2 8.3
2019-Dec-05 06:10 259 1 gusting 2 8.3
2019-Dec-05 06:05 250 1 gusting 2 8.3
2019-Dec-05 06:00 230 2 gusting 4 7.8
2019-Dec-05 05:55 259 0 gusting 1 7.8
2019-Dec-05 05:50 256 1 gusting 2 7.8
2019-Dec-05 05:45 240 1 gusting 2 7.8
2019-Dec-05 05:40 208 0 gusting 1 7.2
2019-Dec-05 05:35 247 0 gusting 1 7.2
2019-Dec-05 05:30 281 0 gusting 1 7.2
2019-Dec-05 05:25 270 1 gusting 2 7.8
2019-Dec-05 05:20 276 2 gusting 4 7.2
2019-Dec-05 05:15 252 2 gusting 4 7.2
2019-Dec-05 05:10 275 1 gusting 4 7.2
2019-Dec-05 05:05 231 2 gusting 5 7.2
2019-Dec-05 05:00 259 1 gusting 4 7.2
2019-Dec-05 04:55 283 2 gusting 4 7.2
2019-Dec-05 04:50 271 2 gusting 4 7.2
2019-Dec-05 04:45 245 1 gusting 2 7.2
2019-Dec-05 04:40 252 1 gusting 4 7.2
2019-Dec-05 04:35 244 2 gusting 5 7.2
2019-Dec-05 04:30 269 1 gusting 4 7.2
2019-Dec-05 04:25 240 1 gusting 4 7.2
2019-Dec-05 04:20 265 2 gusting 4 7.2
2019-Dec-05 04:15 253 2 gusting 5 7.2
2019-Dec-05 04:10 249 2 gusting 5 7.2
2019-Dec-05 04:05 264 2 gusting 4 7.2
2019-Dec-05 04:00 233 2 gusting 4 7.2
2019-Dec-05 03:55 244 1 gusting 4 7.2
2019-Dec-05 03:50 231 2 gusting 4 7.2
2019-Dec-05 03:45 283 1 gusting 2 7.2
2019-Dec-05 03:40 242 1 gusting 2 7.2
2019-Dec-05 03:35 242 1 gusting 2 7.2
2019-Dec-05 03:30 250 0 gusting 2 7.8
2019-Dec-05 03:25 319 1 gusting 1 7.8
2019-Dec-05 03:20 248 1 gusting 2 7.8
2019-Dec-05 03:15 248 1 gusting 4 7.8
2019-Dec-05 03:10 241 1 gusting 2 7.8
2019-Dec-05 03:05 227 1 gusting 2 7.8
2019-Dec-05 03:00 210 0 gusting 1 7.8
2019-Dec-05 02:55 270 7.8
2019-Dec-05 02:50 267 1 gusting 2 7.2
2019-Dec-05 02:45 234 1 gusting 2 7.2
2019-Dec-05 02:40 248 2 gusting 5 6.7
2019-Dec-05 02:35 249 2 gusting 4 6.7
2019-Dec-05 02:30 264 1 gusting 2 6.7
2019-Dec-05 02:25 246 1 gusting 2 6.7
2019-Dec-05 02:20 241 1 gusting 2 6.7
2019-Dec-05 02:15 223 1 gusting 4 6.7
2019-Dec-05 02:10 248 1 gusting 4 6.7
2019-Dec-05 02:05 247 2 gusting 5 6.7
2019-Dec-05 02:00 246 1 gusting 5 6.7
2019-Dec-05 01:55 244 2 gusting 4 6.7
2019-Dec-05 01:50 247 2 gusting 2 6.7
2019-Dec-05 01:45 262 1 gusting 2 6.7
2019-Dec-05 01:40 232 1 gusting 4 6.7
2019-Dec-05 01:35 275 1 gusting 5 6.7
2019-Dec-05 01:30 241 2 gusting 6 6.1
2019-Dec-05 01:25 237 2 gusting 2 6.1
2019-Dec-05 01:20 213 2 gusting 4 6.1
2019-Dec-05 01:15 227 2 gusting 4 6.1
2019-Dec-05 01:10 245 1 gusting 4 6.7
2019-Dec-05 01:05 225 1 gusting 2 6.1
2019-Dec-05 01:00 243 1 gusting 2 6.1
2019-Dec-05 00:55 245 1 gusting 2 6.1
2019-Dec-05 00:50 257 0 gusting 2 5.6
2019-Dec-05 00:45 315 0 gusting 1 5.6
2019-Dec-05 00:40 292 6.1
2019-Dec-05 00:35 006 6.1
2019-Dec-05 00:30 045 6.1
2019-Dec-05 00:25 068 6.7
2019-Dec-05 00:20 057 1 gusting 2 6.7
2019-Dec-05 00:15 202 7.2
2019-Dec-05 00:10 315 1 gusting 2 7.2
2019-Dec-05 00:05 315 1 gusting 1 7.2
2019-Dec-05 00:00 304 0 gusting 1 7.2
2019-Dec-04 23:55 292 0 gusting 2 7.2
2019-Dec-04 23:50 235 1 gusting 2 7.2
2019-Dec-04 23:45 269 1 gusting 2 6.7
2019-Dec-04 23:40 252 2 gusting 4 6.7
2019-Dec-04 23:35 219 2 gusting 4 6.7
2019-Dec-04 23:30 236 2 gusting 4 7.2
2019-Dec-04 23:25 222 2 gusting 5 7.2
2019-Dec-04 23:20 257 1 gusting 2 7.2
2019-Dec-04 23:15 250 0 gusting 2 6.7
2019-Dec-04 23:10 253 6.7
2019-Dec-04 23:05 270 7.2
2019-Dec-04 23:00 268 1 gusting 1 7.2
2019-Dec-04 22:55 292 1 gusting 1 7.2
2019-Dec-04 22:50 268 0 gusting 1 7.2
2019-Dec-04 22:45 273 0 gusting 1 7.2
2019-Dec-04 22:40 270 0 gusting 2 7.2
2019-Dec-04 22:35 243 0 gusting 1 7.2
2019-Dec-04 22:30 210 1 gusting 2 7.8
2019-Dec-04 22:25 292 0 gusting 1 7.2
2019-Dec-04 22:20 248 0 gusting 1 7.2
2019-Dec-04 22:15 292 0 gusting 2 7.2
2019-Dec-04 22:10 293 2 gusting 2 7.2
2019-Dec-04 22:05 293 0 gusting 2 6.7
2019-Dec-04 22:00 292 1 gusting 1 6.7
2019-Dec-04 21:55 245 1 gusting 2 6.7
2019-Dec-04 21:50 261 1 gusting 2 6.7
2019-Dec-04 21:45 243 2 gusting 4 6.1
2019-Dec-04 21:40 243 2 gusting 4 6.1
2019-Dec-04 21:35 263 2 gusting 4 6.1
2019-Dec-04 21:30 246 2 gusting 2 6.1
2019-Dec-04 21:25 237 2 gusting 5 6.1
2019-Dec-04 21:20 234 2 gusting 4 6.1
2019-Dec-04 21:15 241 2 gusting 5 11.7
2019-Dec-04 21:10 248 2 gusting 4 11.7
2019-Dec-04 21:05 243 2 gusting 5 11.7
2019-Dec-04 21:00 243 2 gusting 4 11.7
2019-Dec-04 20:55 240 2 gusting 5 11.7
2019-Dec-04 20:50 240 2 gusting 4 11.7
2019-Dec-04 20:45 259 2 gusting 4 11.7
2019-Dec-04 20:40 248 2 gusting 5 11.7
2019-Dec-04 20:35 258 2 gusting 5 11.7
2019-Dec-04 20:30 255 1 gusting 4 11.7
2019-Dec-04 20:25 284 1 gusting 4 11.7
2019-Dec-04 20:20 249 2 gusting 4 11.7
2019-Dec-04 20:15 263 1 gusting 4 11.7
2019-Dec-04 20:10 230 1 gusting 4 11.7
2019-Dec-04 20:05 242 3 gusting 5 11.7
2019-Dec-04 20:00 244 1 gusting 4 11.7
2019-Dec-04 19:55 231 2 gusting 4 11.7
2019-Dec-04 19:50 282 2 gusting 4 11.7
2019-Dec-04 19:45 242 2 gusting 5 11.7
2019-Dec-04 19:40 248 1 gusting 4 11.7
2019-Dec-04 19:35 242 1 gusting 4 11.7
2019-Dec-04 19:30 271 3 gusting 6 11.7
2019-Dec-04 19:25 255 2 gusting 4 11.7
2019-Dec-04 19:20 256 1 gusting 4 11.7
2019-Dec-04 19:15 243 2 gusting 5 11.7
2019-Dec-04 19:10 261 1 gusting 4 11.7
2019-Dec-04 19:05 254 1 gusting 5 11.7
2019-Dec-04 19:00 254 1 gusting 5 11.7
2019-Dec-04 18:55 221 1 gusting 4 11.7
2019-Dec-04 18:50 230 1 gusting 2 11.7
2019-Dec-04 18:45 245 1 gusting 5 11.7
2019-Dec-04 18:40 240 1 gusting 4 11.7
2019-Dec-04 18:35 263 1 gusting 5 11.7
2019-Dec-04 18:30 264 1 gusting 5 11.7
2019-Dec-04 18:25 253 1 gusting 2 11.7
2019-Dec-04 18:20 265 1 gusting 4 11.7
2019-Dec-04 18:15 274 1 gusting 4 11.7
2019-Dec-04 18:10 243 1 gusting 2 11.7
2019-Dec-04 18:05 303 1 gusting 2 11.7
2019-Dec-04 18:00 272 1 gusting 2 11.7
2019-Dec-04 17:55 248 1 gusting 4 11.7
2019-Dec-04 17:50 235 1 gusting 4 11.7
2019-Dec-04 17:45 230 2 gusting 4 11.7
2019-Dec-04 17:40 268 1 gusting 2 11.7
2019-Dec-04 17:35 235 2 gusting 4 11.7
2019-Dec-04 17:30 249 2 gusting 5 11.7
2019-Dec-04 17:25 283 1 gusting 4 11.7
2019-Dec-04 17:20 250 2 gusting 4 11.7
2019-Dec-04 17:15 279 1 gusting 4 11.7
2019-Dec-04 17:10 308 1 gusting 4 11.7
2019-Dec-04 17:05 285 1 gusting 2 11.7
2019-Dec-04 17:00 290 1 gusting 4 11.7
2019-Dec-04 16:55 278 1 gusting 4 11.7
2019-Dec-04 16:50 258 1 gusting 4 11.7
2019-Dec-04 16:45 230 2 gusting 5 11.7
2019-Dec-04 16:40 284 2 gusting 2 11.7
2019-Dec-04 16:35 254 2 gusting 6 11.7
2019-Dec-04 16:30 244 2 gusting 4 11.7
2019-Dec-04 16:25 254 2 gusting 4 11.7
2019-Dec-04 16:20 275 1 gusting 4 11.7
2019-Dec-04 16:15 266 1 gusting 2 11.7
2019-Dec-04 16:10 272 2 gusting 4 11.7
2019-Dec-04 16:05 247 1 gusting 4 11.7
2019-Dec-04 16:00 234 2 gusting 4 11.7
2019-Dec-04 15:55 213 1 gusting 2 11.7
2019-Dec-04 15:50 231 1 gusting 2 11.7
2019-Dec-04 15:45 223 1 gusting 2 11.7
2019-Dec-04 15:40 229 1 gusting 5 11.7
2019-Dec-04 15:35 232 1 gusting 2 11.7
2019-Dec-04 15:30 242 1 gusting 2 11.7
2019-Dec-04 15:25 263 1 gusting 2 11.7
2019-Dec-04 15:20 257 1 gusting 2 11.7
2019-Dec-04 15:15 248 1 gusting 2 11.7
2019-Dec-04 15:10 247 1 gusting 4 11.7
2019-Dec-04 15:05 268 1 gusting 4 11.7
2019-Dec-04 15:00 248 2 gusting 4 11.7
2019-Dec-04 14:55 246 1 gusting 5 11.7
2019-Dec-04 14:50 281 1 gusting 4 11.7
2019-Dec-04 14:45 216 2 gusting 2 11.7
2019-Dec-04 14:40 234 1 gusting 2 11.7
2019-Dec-04 14:35 248 1 gusting 2 11.7
2019-Dec-04 14:30 254 1 gusting 2 11.7
2019-Dec-04 14:25 250 1 gusting 4 11.7
2019-Dec-04 14:20 248 1 gusting 2 11.7
2019-Dec-04 14:15 252 1 gusting 1 11.7
2019-Dec-04 14:10 235 1 gusting 4 11.7
2019-Dec-04 14:05 243 2 gusting 5 11.7
2019-Dec-04 14:00 203 1 gusting 4 11.7
2019-Dec-04 13:55 191 1 gusting 4 11.7
2019-Dec-04 13:50 245 1 gusting 2 11.7
2019-Dec-04 13:45 238 1 gusting 2 11.7
2019-Dec-04 13:40 230 2 gusting 4 11.7
2019-Dec-04 13:35 222 2 gusting 4 11.7
2019-Dec-04 13:30 282 1 gusting 2 11.7
2019-Dec-04 13:25 238 1 gusting 4 11.7
2019-Dec-04 13:20 248 1 gusting 4 11.7
2019-Dec-04 13:15 176 1 gusting 4 11.7
2019-Dec-04 13:10 219 1 gusting 4 11.7
2019-Dec-04 13:05 213 1 gusting 2 11.7
2019-Dec-04 13:00 200 0 gusting 2 11.7
2019-Dec-04 12:55 209 0 gusting 2 11.7
2019-Dec-04 12:50 211 1 gusting 2 11.7
2019-Dec-04 12:45 197 1 gusting 4 11.7
2019-Dec-04 12:40 224 4 gusting 6 11.7
2019-Dec-04 12:35 226 1 gusting 2 11.7
2019-Dec-04 12:30 230 0 gusting 2 11.7
2019-Dec-04 12:25 223 1 gusting 2 11.7
2019-Dec-04 12:20 175 1 gusting 4 11.7
2019-Dec-04 12:15 179 2 gusting 6 11.7
2019-Dec-04 12:10 227 1 gusting 4 11.7
2019-Dec-04 12:05 167 1 gusting 4 11.7
2019-Dec-04 12:00 224 1 gusting 4 11.7
2019-Dec-04 11:55 215 1 gusting 4 11.7
2019-Dec-04 11:50 214 0 gusting 4 11.7
2019-Dec-04 11:45 202 1 gusting 4 11.7
2019-Dec-04 11:40 195 1 gusting 4 11.7
2019-Dec-04 11:35 198 2 gusting 5 11.7
2019-Dec-04 11:30 202 1 gusting 4 11.7
2019-Dec-04 11:25 190 1 gusting 2 11.7
2019-Dec-04 11:20 217 1 gusting 4 11.7
2019-Dec-04 11:15 201 1 gusting 2 11.7
2019-Dec-04 11:10 191 1 gusting 4 11.7
2019-Dec-04 11:05 235 2 gusting 5 11.7
2019-Dec-04 11:00 208 2 gusting 2 11.7
2019-Dec-04 10:55 191 1 gusting 4 11.7
2019-Dec-04 10:50 206 1 gusting 5 11.7
2019-Dec-04 10:45 208 2 gusting 5 11.7
2019-Dec-04 10:40 195 1 gusting 2 11.7
2019-Dec-04 10:35 212 1 gusting 4 11.7
2019-Dec-04 10:30 220 1 gusting 4 11.7
2019-Dec-04 10:25 179 1 gusting 4 11.7
2019-Dec-04 10:20 199 1 gusting 2 11.7
2019-Dec-04 10:15 188 1 gusting 2 11.7
2019-Dec-04 10:10 226 1 gusting 5 11.7
2019-Dec-04 10:05 253 1 gusting 4 11.7
2019-Dec-04 10:00 239 1 gusting 4 11.7
2019-Dec-04 09:55 215 1 gusting 4 11.7
2019-Dec-04 09:50 233 1 gusting 5 11.7
2019-Dec-04 09:45 195 1 gusting 4 11.7
2019-Dec-04 09:40 181 1 gusting 5 11.7
2019-Dec-04 09:35 227 1 gusting 2 11.7
2019-Dec-04 09:30 230 1 gusting 4 11.7
2019-Dec-04 09:25 193 2 gusting 5 11.7
2019-Dec-04 09:20 196 1 gusting 4 11.7
2019-Dec-04 09:15 186 2 gusting 4 11.7
2019-Dec-04 09:10 207 1 gusting 4 11.7
2019-Dec-04 09:05 205 1 gusting 5 11.7
2019-Dec-04 09:00 211 1 gusting 2 11.7
2019-Dec-04 08:55 209 1 gusting 5 11.7
2019-Dec-04 08:50 199 2 gusting 4 11.7
2019-Dec-04 08:45 177 2 gusting 2 11.7
2019-Dec-04 08:40 236 3 gusting 6 11.7
2019-Dec-04 08:35 235 2 gusting 6 11.7
2019-Dec-04 08:30 222 1 gusting 4 11.7
2019-Dec-04 08:25 188 1 gusting 5 11.7
2019-Dec-04 08:20 229 1 gusting 5 11.7
2019-Dec-04 08:15 230 1 gusting 6 11.7
2019-Dec-04 08:10 239 2 gusting 5 11.7
2019-Dec-04 08:05 210 2 gusting 5 11.7
2019-Dec-04 08:00 254 2 gusting 6 11.7
2019-Dec-04 07:55 235 2 gusting 5 11.7
2019-Dec-04 07:50 222 1 gusting 4 11.7
2019-Dec-04 07:45 212 1 gusting 5 11.7
2019-Dec-04 07:40 238 1 gusting 5 11.7
2019-Dec-04 07:35 222 2 gusting 5 11.7
2019-Dec-04 07:30 228 2 gusting 5 11.7
2019-Dec-04 07:25 223 1 gusting 4 11.7
2019-Dec-04 07:20 239 2 gusting 5 11.7
2019-Dec-04 07:15 223 2 gusting 5 11.7
2019-Dec-04 07:10 239 0 gusting 5 11.7
2019-Dec-04 07:05 233 2 gusting 5 11.7
2019-Dec-04 07:00 216 2 gusting 4 11.7
2019-Dec-04 06:55 231 1 gusting 5 11.7
2019-Dec-04 06:50 237 2 gusting 5 11.7
2019-Dec-04 06:45 242 1 gusting 4 11.7
2019-Dec-04 06:40 234 2 gusting 5 11.7
2019-Dec-04 06:35 256 1 gusting 5 11.7
2019-Dec-04 06:30 215 1 gusting 5 11.7
2019-Dec-04 06:25 249 1 gusting 5 11.7
2019-Dec-04 06:20 273 2 gusting 4 11.7
2019-Dec-04 06:15 270 1 gusting 5 11.7
2019-Dec-04 06:10 240 1 gusting 4 11.7
2019-Dec-04 06:05 231 1 gusting 4 11.7
2019-Dec-04 06:00 239 1 gusting 4 11.7
2019-Dec-04 05:55 267 2 gusting 6 11.7
2019-Dec-04 05:50 235 2 gusting 5 11.7
2019-Dec-04 05:45 245 1 gusting 1 11.7
2019-Dec-04 05:40 234 1 gusting 2 11.7
2019-Dec-04 05:35 273 1 gusting 4 11.7
2019-Dec-04 05:30 234 1 gusting 2 11.7
2019-Dec-04 05:25 218 1 gusting 2 11.7
2019-Dec-04 05:20 241 0 gusting 5 11.7
2019-Dec-04 05:15 282 1 gusting 4 11.7
2019-Dec-04 05:10 235 1 gusting 5 11.7
2019-Dec-04 05:05 292 0 gusting 2 11.7
2019-Dec-04 05:00 251 2 gusting 5 11.7
2019-Dec-04 04:55 238 1 gusting 4 11.7
2019-Dec-04 04:50 227 2 gusting 5 11.7
2019-Dec-04 04:45 270 2 gusting 6 11.7
2019-Dec-04 04:40 243 2 gusting 5 11.7
2019-Dec-04 04:35 237 1 gusting 2 11.7
2019-Dec-04 04:30 198 1 gusting 2 11.7
2019-Dec-04 04:25 254 2 gusting 5 11.7
2019-Dec-04 04:20 236 1 gusting 4 11.7
2019-Dec-04 04:15 230 1 gusting 4 11.7
2019-Dec-04 04:10 205 2 gusting 5 11.7
2019-Dec-04 04:05 257 1 gusting 4 11.7
2019-Dec-04 04:00 184 0 gusting 2 11.7
2019-Dec-04 03:55 281 1 gusting 4 11.7
2019-Dec-04 03:50 262 1 gusting 2 11.7
2019-Dec-04 03:45 252 1 gusting 2 11.7
2019-Dec-04 03:40 235 2 gusting 5 11.7
2019-Dec-04 03:35 276 2 gusting 2 11.7
2019-Dec-04 03:30 207 1 gusting 4 11.7
2019-Dec-04 03:25 208 1 gusting 2 11.7
2019-Dec-04 03:20 217 1 gusting 2 11.7
2019-Dec-04 03:15 248 0 gusting 4 11.7
2019-Dec-04 03:10 276 2 gusting 5 11.7
2019-Dec-04 03:05 250 1 gusting 2 11.7
2019-Dec-04 03:00 223 1 gusting 4 11.7
2019-Dec-04 02:55 259 1 gusting 5 11.7
2019-Dec-04 02:50 255 2 gusting 5 11.7
2019-Dec-04 02:45 221 1 gusting 5 11.7
2019-Dec-04 02:40 218 2 gusting 4 11.7
2019-Dec-04 02:35 244 2 gusting 5 11.7
2019-Dec-04 02:30 267 1 gusting 2 11.7
2019-Dec-04 02:25 216 1 gusting 2 11.7
2019-Dec-04 02:20 195 1 gusting 4 11.7
2019-Dec-04 02:15 222 1 gusting 4 11.7
2019-Dec-04 02:10 188 0 gusting 2 11.7
2019-Dec-04 02:05 194 1 gusting 5 11.7
2019-Dec-04 02:00 264 2 gusting 5 11.7
2019-Dec-04 01:55 203 1 gusting 5 11.7
2019-Dec-04 01:50 213 0 gusting 2 11.7
2019-Dec-04 01:45 230 1 gusting 7 11.7
2019-Dec-04 01:40 271 2 gusting 7 11.7
2019-Dec-04 01:35 260 2 gusting 4 11.7
2019-Dec-04 01:30 204 1 gusting 4 11.7
2019-Dec-04 01:25 208 1 gusting 5 11.7
2019-Dec-04 01:20 230 1 gusting 4 11.7
2019-Dec-04 01:15 258 1 gusting 5 11.7
2019-Dec-04 01:10 272 2 gusting 5 11.7
2019-Dec-04 01:05 248 1 gusting 4 11.7
2019-Dec-04 01:00 169 1 gusting 2 11.7
2019-Dec-04 00:55 246 1 gusting 4 11.7
2019-Dec-04 00:50 212 1 gusting 2 11.7
2019-Dec-04 00:45 283 2 gusting 4 11.7
2019-Dec-04 00:40 239 1 gusting 2 11.7
2019-Dec-04 00:35 263 1 gusting 4 11.7
2019-Dec-04 00:30 292 1 gusting 4 11.7
2019-Dec-04 00:25 182 2 gusting 4 11.7
2019-Dec-04 00:20 217 2 gusting 6 11.7
2019-Dec-04 00:15 240 2 gusting 6 11.7
2019-Dec-04 00:10 242 3 gusting 5 11.7
2019-Dec-04 00:05 245 1 gusting 4 11.7
2019-Dec-04 00:00 246 1 gusting 5 11.7
2019-Dec-03 23:55 250 1 gusting 5 11.7
2019-Dec-03 23:50 223 1 gusting 5 11.7
2019-Dec-03 23:45 247 1 gusting 5 11.7
2019-Dec-03 23:40 212 1 gusting 5 11.7
2019-Dec-03 23:35 233 0 gusting 5 11.7
2019-Dec-03 23:30 215 0 gusting 5 11.7
2019-Dec-03 23:25 245 2 gusting 5 11.7
2019-Dec-03 23:20 213 3 gusting 5 11.7
2019-Dec-03 23:15 258 1 gusting 4 11.7
2019-Dec-03 23:10 222 1 gusting 6 11.7
2019-Dec-03 23:05 255 2 gusting 4 11.7
2019-Dec-03 23:00 249 2 gusting 5 11.7
2019-Dec-03 22:55 219 2 gusting 6 11.7
2019-Dec-03 22:50 263 2 gusting 6 11.7
2019-Dec-03 22:45 213 1 gusting 6 11.7
2019-Dec-03 22:40 246 1 gusting 5 11.7
2019-Dec-03 22:35 236 2 gusting 5 11.7
2019-Dec-03 22:30 227 1 gusting 4 11.7
2019-Dec-03 22:25 238 1 gusting 4 11.7
2019-Dec-03 22:20 211 1 gusting 4 11.7
2019-Dec-03 22:15 246 1 gusting 4 11.7
2019-Dec-03 22:10 213 1 gusting 2 11.7
2019-Dec-03 22:05 241 1 gusting 4 11.7
2019-Dec-03 22:00 236 1 gusting 4 11.7
2019-Dec-03 21:55 244 1 gusting 4 11.7
2019-Dec-03 21:50 222 1 gusting 2 11.7
2019-Dec-03 21:45 237 1 gusting 4 11.7
2019-Dec-03 21:40 199 2 gusting 6 11.7
2019-Dec-03 21:35 249 1 gusting 2 11.7
2019-Dec-03 21:30 232 1 gusting 2 11.7
2019-Dec-03 21:25 241 1 gusting 4 11.7
2019-Dec-03 21:20 276 1 gusting 4 11.7
2019-Dec-03 21:15 202 1 gusting 4 11.7
2019-Dec-03 21:10 238 1 gusting 5 11.7
2019-Dec-03 21:05 226 1 gusting 6 11.7
2019-Dec-03 21:00 210 1 gusting 5 11.7
2019-Dec-03 20:55 204 2 gusting 4 11.7
2019-Dec-03 20:50 204 2 gusting 5 11.7
2019-Dec-03 20:45 226 1 gusting 4 11.7
2019-Dec-03 20:40 235 3 gusting 6 11.7
2019-Dec-03 20:35 215 3 gusting 5 11.7
2019-Dec-03 20:30 216 2 gusting 5 11.7
2019-Dec-03 20:25 302 2 gusting 5 11.7
2019-Dec-03 20:20 242 1 gusting 6 11.7
2019-Dec-03 20:15 218 2 gusting 6 11.7
2019-Dec-03 20:10 262 1 gusting 2 11.7
2019-Dec-03 20:05 245 2 gusting 4 11.7
2019-Dec-03 20:00 233 2 gusting 5 11.7
2019-Dec-03 19:55 292 1 gusting 4 11.7
2019-Dec-03 19:50 242 2 gusting 4 11.7
2019-Dec-03 19:45 211 1 gusting 2 11.7
2019-Dec-03 19:40 246 1 gusting 5 11.7
2019-Dec-03 19:35 253 1 gusting 4 11.7
2019-Dec-03 19:30 219 0 gusting 4 11.7
2019-Dec-03 19:25 250 1 gusting 4 11.7
2019-Dec-03 19:20 223 1 gusting 4 11.7
2019-Dec-03 19:15 232 0 gusting 4 11.7
2019-Dec-03 19:10 252 1 gusting 4 11.7
2019-Dec-03 19:05 214 1 gusting 2 11.7
2019-Dec-03 19:00 248 2 gusting 4 11.7
2019-Dec-03 18:55 285 2 gusting 6 11.7
2019-Dec-03 18:50 243 1 gusting 4 11.7
2019-Dec-03 18:45 257 2 gusting 5 11.7
2019-Dec-03 18:40 262 1 gusting 5 11.7
2019-Dec-03 18:35 211 1 gusting 4 11.7
2019-Dec-03 18:30 234 1 gusting 5 11.7
2019-Dec-03 18:25 241 1 gusting 4 11.7
2019-Dec-03 18:20 241 2 gusting 5 11.7
2019-Dec-03 18:15 214 1 gusting 4 11.7
2019-Dec-03 18:10 224 1 gusting 5 11.7
2019-Dec-03 18:05 238 1 gusting 5 11.7
2019-Dec-03 18:00 241 2 gusting 6 11.7
2019-Dec-03 17:55 240 1 gusting 6 11.7
2019-Dec-03 17:50 257 1 gusting 2 11.7
2019-Dec-03 17:45 245 1 gusting 5 11.7
2019-Dec-03 17:40 234 1 gusting 5 11.7
2019-Dec-03 17:35 247 1 gusting 4 11.7
2019-Dec-03 17:30 253 1 gusting 2 11.7
2019-Dec-03 17:25 226 1 gusting 4 11.7
2019-Dec-03 17:20 233 1 gusting 4 11.7
2019-Dec-03 17:15 202 1 gusting 2 11.7
2019-Dec-03 17:10 207 1 gusting 5 11.7
2019-Dec-03 17:05 297 1 gusting 2 11.7
2019-Dec-03 17:00 252 1 gusting 2 11.7
2019-Dec-03 16:55 242 0 gusting 2 11.7
2019-Dec-03 16:50 260 0 gusting 2 11.7
2019-Dec-03 16:45 189 1 gusting 4 11.7
2019-Dec-03 16:40 262 1 gusting 5 11.7
2019-Dec-03 16:35 264 1 gusting 2 11.7
2019-Dec-03 16:30 288 1 gusting 2 11.7
2019-Dec-03 16:25 251 1 gusting 2 11.7
2019-Dec-03 16:20 205 0 gusting 2 11.7
2019-Dec-03 16:15 202 1 gusting 4 11.7
2019-Dec-03 16:10 223 1 gusting 2 11.7
2019-Dec-03 16:05 224 0 gusting 2 11.7
2019-Dec-03 16:00 224 0 gusting 5 11.7
2019-Dec-03 15:55 232 2 gusting 5 11.7
2019-Dec-03 15:50 272 1 gusting 4 11.7
2019-Dec-03 15:45 232 1 gusting 4 11.7
2019-Dec-03 15:40 231 1 gusting 5 11.7
2019-Dec-03 15:35 284 0 gusting 5 11.7
2019-Dec-03 15:30 224 1 gusting 4 11.7
2019-Dec-03 15:25 232 1 gusting 2 11.7
2019-Dec-03 15:20 237 2 gusting 6 11.7
2019-Dec-03 15:15 263 1 gusting 6 11.7
2019-Dec-03 15:10 218 1 gusting 4 11.7
2019-Dec-03 15:05 233 1 gusting 2 11.7
2019-Dec-03 15:00 256 1 gusting 1 11.7
2019-Dec-03 14:55 205 0 gusting 4 11.7
2019-Dec-03 14:50 257 1 gusting 4 11.7
2019-Dec-03 14:45 202 1 gusting 5 11.7
2019-Dec-03 14:40 222 1 gusting 4 11.7
2019-Dec-03 14:35 226 1 gusting 2 11.7
2019-Dec-03 14:30 206 1 gusting 1 11.7
2019-Dec-03 14:25 240 1 gusting 2 11.7
2019-Dec-03 14:20 252 0 gusting 1 11.7
2019-Dec-03 14:15 195 0 gusting 4 11.7
2019-Dec-03 14:10 224 0 gusting 2 11.7
2019-Dec-03 14:05 235 1 gusting 2 11.7
2019-Dec-03 14:00 242 1 gusting 2 11.7